Find Starlink 11670

NORAD ID: 64237 Int'l Des: 2025-119 Owner: SPXS Country: US Constellation: starlink operational
別名: STARLINK-11670 [DTC] celestrak
LEOCIRCULAR

現在のビュー

3D地球を読み込み中...

About Starlink 11670

Starlink 11670 (NORAD 64237) is a starlink constellation satellite (v2 mini d2c) launched Jun 3, 2025 by SPXS of US. It operates in LEO, CIRCULAR orbit with a mass of 960.00 kg.

次回通過

Passes for default location (London). Set your location on the main map for personalized predictions.

高度履歴

Loading altitude history...

軌道要素

1 64237U 25119E 26238.47027147 .00146342 00000-0 11202-2 0 9991
2 64237 43.0011 266.0179 0001326 307.1969 52.8777 15.70921750 71945
Epoch: Aug 26, 2026 • Age: 10 hours

現在のステータス

高度 359.7 km
遠地点 / 近地点 N/A
速度 7.70 km/s
衛星直下点 43.12°N, 69.22°E
打ち上げ日 Jun 3, 2025
運用期間 1.2 years
タイプ internet

技術仕様

分類 Payload
質量 960.00 kg
乾燥質量 910.00 kg
総質量 960.00 kg
長さ 0.30 m
直径 4.10 m
スパン 29.00 m
形状 Box + pan
製造者 SPXS
バスタイプ Starlink V2MD
フェーズステータス In Orbit
所有者/国 SPXS/US

Most Searched